Weather History for KALW - May, 2013

Change the Weather History Date:

Saturday, May 11, 2013

  Actual Average Record
Temperature  
Mean Temperature 80 °F -  
Max Temperature 91 °F 70 °F 91 °F (1988)
Min Temperature 68 °F 46 °F 34 °F (2012)
Cooling Degree Days 14    
Growing Degree Days 30 (Base 50)    
Moisture  
Dew Point 46 °F    
Average Humidity 33    
Maximum Humidity 45    
Minimum Humidity 18    
Precipitation  
Precipitation 0.00 in - - ()
Sea Level Pressure  
Sea Level Pressure 30.04 in    
Wind  
Wind Speed 7 mph (South)    
Max Wind Speed 10 mph    
Max Gust Speed -    
Visibility 10 miles    
Events      
Averages and records for this station are not official NWS values.
T = Trace of Precipitation, MM = Missing Value Source: NWS Daily Summary

Daily Weather History Graph

Daily Weather History Graph

Search for Another Location

Airport or City:

Trip Planner

Search our weather history database for the weather conditions in past years. The results will help you decide how hot, cold, wet, or windy it might be!

Date:

Astronomy

May. 11, 2013 Rise Set
Actual Time 5:25 AM PDT 8:14 PM PDT
Civil Twilight 4:50 AM PDT 8:49 PM PDT
Nautical Twilight 4:06 AM PDT 9:33 PM PDT
Astronomical Twilight 3:14 AM PDT 10:25 PM PDT
Moon 6:34 AM PDT (5/11) 10:00 PM PDT (5/11)
Length of Visible Light 15h 58m
Length of Day
14h 49m
Waxing Crescent, 3% of the Moon is Illuminated
May 11
Waxing Crescent
May 17
First Quarter
May 24
Full
May 31
Last Quarter
Jun 8
New

Hourly Weather History & Observations

Time (PDT) Temp. Heat Index Dew Point Humidity Pressure Visibility Wind Dir Wind Speed Gust Speed Precip Events Conditions
12:53 AM 72.0 °F - 41.0 °F 33% 30.07 in 10.0 mi WSW 4.6 mph - N/A   Clear
1:53 AM 72.0 °F - 42.1 °F 34% 30.08 in 10.0 mi SSE 6.9 mph - N/A   Clear
2:53 AM 70.0 °F - 45.0 °F 41% 30.09 in 10.0 mi South 4.6 mph - N/A   Clear
3:53 AM 70.0 °F - 46.0 °F 42% 30.09 in 10.0 mi South 10.4 mph - N/A   Clear
4:53 AM 70.0 °F - 46.0 °F 42% 30.08 in 10.0 mi South 8.1 mph - N/A   Clear
5:53 AM 68.0 °F - 46.0 °F 45% 30.09 in 10.0 mi SSW 9.2 mph - N/A   Clear
6:53 AM 71.1 °F - 46.9 °F 42% 30.10 in 10.0 mi Calm Calm - N/A   Clear
7:53 AM 73.0 °F - 46.9 °F 39% 30.11 in 10.0 mi South 4.6 mph - N/A   Clear
8:53 AM 77.0 °F - 46.0 °F 33% 30.10 in 8.0 mi SW 10.4 mph - N/A   Clear
9:53 AM 79.0 °F - 44.1 °F 29% 30.09 in 10.0 mi SW 9.2 mph - N/A   Clear
10:53 AM 82.9 °F - 46.0 °F 27% 30.09 in 10.0 mi WSW 10.4 mph - N/A   Clear
11:53 AM 84.0 °F - 46.9 °F 27% 30.09 in 10.0 mi WSW 10.4 mph - N/A   Clear
12:53 PM 84.9 °F - 46.0 °F 26% 30.06 in 10.0 mi WSW 6.9 mph - N/A   Clear
1:53 PM 87.1 °F - 44.1 °F 22% 30.04 in 10.0 mi WSW 5.8 mph - N/A   Clear
3:53 PM 90.0 °F - 41.0 °F 18% 30.01 in 10.0 mi West 4.6 mph - N/A   Clear
4:53 PM 91.0 °F - 43.0 °F 19% 29.99 in 10.0 mi West 3.5 mph - N/A   Clear
5:53 PM 90.0 °F - 44.1 °F 20% 29.98 in 10.0 mi East 5.8 mph - N/A   Clear
6:53 PM 88.0 °F - 46.9 °F 24% 29.96 in 10.0 mi ESE 5.8 mph - N/A   Clear
7:53 PM 82.0 °F 81.4 °F 55.0 °F 39% 29.95 in 10.0 mi ESE 4.6 mph - N/A   Clear
8:53 PM 75.9 °F - 53.1 °F 45% 29.95 in 10.0 mi East 6.9 mph - N/A   Clear
9:53 PM 75.0 °F - 48.9 °F 40% 29.96 in 10.0 mi East 8.1 mph - N/A   Clear
10:53 PM 75.0 °F - 48.0 °F 38% 29.95 in 10.0 mi East 8.1 mph - N/A   Clear
11:53 PM 75.0 °F - 46.9 °F 37% 29.96 in 10.0 mi East 9.2 mph - N/A   Clear